CUTE-1 (CO-55)

Last updated on Fri Jul 11 2025 00:03:03 GMT+0000 (Coordinated Universal Time)

1 27844U 03031E 25191.59604182 .00000206 00000+0 10867-3 0 9997 2 27844 98.6756 199.4689 0010921 96.7093 263.5329 14.24015713143052
UTC large
Height (km)
Speed (km/s)
/
Latitude / Longitude
Inclination (degrees)
Orbital Period (minutes)
Azimuth
Elevation
Range (km)
Doppler Factor

Next 0 passes for location: London (51.5072 / 0.1276)

Sorry there are no passes over London.